• In Hungary
  • List of Countries
  • For 7 days
  • Water Temperature
  • Satellite Maps
  • Weather Map
  • News
  • Weather Widgets
  • user-avatar
    Login

    Hourly Weather Bolshie Yasnovicy

    Today, 21 August, Tuesday

    Time Temperature Precipitation Wind Pressure Humidity
    00:00 +18°C° 0 mm 4 mps 732 mmHg 86%
    01:00 +18°C° 0 mm 4 mps 731 mmHg 86%
    02:00 +18°C° 0 mm 4 mps 731 mmHg 86%
    03:00 +18°C° 0.3 mm 4 mps 730 mmHg 89%
    04:00 +17°C° 0.3 mm 4 mps 730 mmHg 92%
    05:00 +17°C° 0.3 mm 4 mps 729 mmHg 95%
    06:00 +17°C° 0.4 mm 4 mps 729 mmHg 94%
    07:00 +16°C° 0.4 mm 5 mps 730 mmHg 94%
    08:00 +16°C° 0.4 mm 5 mps 730 mmHg 93%
    09:00 +16°C° 0.2 mm 5 mps 730 mmHg 87%
    10:00 +17°C° 0.2 mm 5 mps 730 mmHg 80%
    11:00 +19°C° 0.2 mm 5 mps 731 mmHg 73%
    12:00 +19°C° 0.1 mm 6 mps 731 mmHg 68%
    13:00 +19°C° 0.1 mm 6 mps 731 mmHg 63%
    14:00 +19°C° 0.1 mm 6 mps 731 mmHg 57%
    15:00 +19°C° 0 mm 6 mps 732 mmHg 56%
    16:00 +17°C° 0 mm 5 mps 732 mmHg 56%
    17:00 +17°C° 0 mm 5 mps 732 mmHg 55%
    18:00 +15°C° 0 mm 4 mps 733 mmHg 61%
    19:00 +14°C° 0 mm 3 mps 733 mmHg 67%
    20:00 +13°C° 0 mm 2 mps 733 mmHg 73%
    21:00 +12°C° 0 mm 3 mps 734 mmHg 75%
    22:00 +11°C° 0 mm 3 mps 734 mmHg 78%
    23:00 +10°C° 0 mm 3 mps 734 mmHg 80%

    Tomorrow, 22 August, Wednesday

    Time Temperature Precipitation Wind Pressure Humidity
    00:00 +10°C° 0 mm 3 mps 735 mmHg 81%
    01:00 +10°C° 0 mm 3 mps 735 mmHg 82%
    02:00 +9°C° 0 mm 3 mps 736 mmHg 84%
    03:00 +9°C° 0 mm 3 mps 736 mmHg 85%
    04:00 +9°C° 0 mm 3 mps 736 mmHg 86%
    05:00 +9°C° 0 mm 3 mps 737 mmHg 88%
    06:00 +10°C° 0 mm 4 mps 737 mmHg 82%
    07:00 +11°C° 0 mm 4 mps 738 mmHg 76%
    08:00 +12°C° 0 mm 4 mps 738 mmHg 70%
    09:00 +13°C° 0 mm 4 mps 739 mmHg 63%
    10:00 +15°C° 0 mm 5 mps 739 mmHg 56%
    11:00 +16°C° 0 mm 5 mps 739 mmHg 50%
    12:00 +16°C° 0 mm 5 mps 740 mmHg 48%
    13:00 +16°C° 0 mm 5 mps 740 mmHg 46%
    14:00 +17°C° 0 mm 5 mps 740 mmHg 45%
    15:00 +17°C° 0 mm 4 mps 740 mmHg 47%
    16:00 +17°C° 0 mm 4 mps 740 mmHg 49%
    17:00 +17°C° 0 mm 4 mps 741 mmHg 51%
    18:00 +14°C° 0 mm 3 mps 741 mmHg 59%
    19:00 +13°C° 0 mm 2 mps 741 mmHg 67%
    20:00 +10°C° 0 mm 2 mps 742 mmHg 74%
    21:00 +9°C° 0 mm 2 mps 742 mmHg 76%
    22:00 +10°C° 0 mm 1 mps 742 mmHg 79%
    23:00 +9°C° 0 mm 1 mps 743 mmHg 81%

    Day after tomorrow, 23 August, Thursday

    Time Temperature Precipitation Wind Pressure Humidity
    00:00 +9°C° 0 mm 1 mps 743 mmHg 82%
    01:00 +8°C° 0 mm 1 mps 743 mmHg 83%
    02:00 +8°C° 0 mm 1 mps 743 mmHg 85%
    03:00 +8°C° 0 mm 1 mps 743 mmHg 86%
    04:00 +8°C° 0 mm 1 mps 743 mmHg 87%
    05:00 +8°C° 0 mm 1 mps 743 mmHg 87%
    06:00 +10°C° 0 mm 1 mps 743 mmHg 79%
    07:00 +12°C° 0 mm 1 mps 744 mmHg 72%
    08:00 +14°C° 0 mm 2 mps 744 mmHg 64%
    09:00 +16°C° 0 mm 2 mps 744 mmHg 58%
    10:00 +17°C° 0 mm 2 mps 743 mmHg 53%
    11:00 +19°C° 0 mm 2 mps 743 mmHg 47%
    12:00 +19°C° 0 mm 2 mps 743 mmHg 46%
    13:00 +20°C° 0 mm 3 mps 743 mmHg 45%
    14:00 +21°C° 0 mm 3 mps 743 mmHg 43%
    15:00 +20°C° 0 mm 2 mps 742 mmHg 47%
    16:00 +20°C° 0 mm 2 mps 742 mmHg 51%
    17:00 +20°C° 0 mm 2 mps 742 mmHg 55%
    18:00 +17°C° 0 mm 2 mps 742 mmHg 63%
    19:00 +15°C° 0 mm 2 mps 742 mmHg 70%
    20:00 +13°C° 0 mm 2 mps 741 mmHg 77%
    21:00 +12°C° 0 mm 2 mps 741 mmHg 80%
    22:00 +12°C° 0 mm 2 mps 741 mmHg 83%
    23:00 +10°C° 0 mm 2 mps 741 mmHg 86%

    24 August, Friday

    Time Temperature Precipitation Wind Pressure Humidity
    00:00 +10°C° 0 mm 2 mps 741 mmHg 88%
    01:00 +9°C° 0 mm 2 mps 741 mmHg 89%
    02:00 +9°C° 0 mm 2 mps 741 mmHg 91%
    03:00 +9°C° 0 mm 2 mps 741 mmHg 91%
    04:00 +8°C° 0 mm 2 mps 741 mmHg 92%
    05:00 +8°C° 0 mm 2 mps 741 mmHg 92%
    06:00 +10°C° 0 mm 2 mps 740 mmHg 84%
    07:00 +12°C° 0 mm 3 mps 740 mmHg 76%
    08:00 +14°C° 0 mm 3 mps 740 mmHg 68%
    09:00 +17°C° 0 mm 3 mps 740 mmHg 61%
    10:00 +19°C° 0 mm 4 mps 740 mmHg 55%
    11:00 +21°C° 0 mm 4 mps 740 mmHg 48%
    12:00 +22°C° 0 mm 4 mps 740 mmHg 46%
    13:00 +22°C° 0 mm 4 mps 739 mmHg 44%
    14:00 +23°C° 0 mm 4 mps 739 mmHg 42%
    15:00 +22°C° 0 mm 3 mps 738 mmHg 47%
    16:00 +22°C° 0 mm 3 mps 738 mmHg 51%
    17:00 +21°C° 0 mm 2 mps 738 mmHg 56%
    18:00 +19°C° 0 mm 2 mps 737 mmHg 62%
    19:00 +17°C° 0 mm 3 mps 737 mmHg 69%
    20:00 +14°C° 0 mm 3 mps 737 mmHg 76%
    21:00 +14°C° 0 mm 3 mps 737 mmHg 77%
    22:00 +14°C° 0 mm 3 mps 737 mmHg 78%
    23:00 +14°C° 0 mm 3 mps 737 mmHg 79%

    25 August, Saturday

    Time Temperature Precipitation Wind Pressure Humidity
    00:00 +13°C° 0 mm 3 mps 737 mmHg 79%
    01:00 +13°C° 0 mm 3 mps 736 mmHg 78%
    02:00 +13°C° 0 mm 3 mps 736 mmHg 77%
    03:00 +13°C° 0 mm 3 mps 736 mmHg 77%
    04:00 +13°C° 0 mm 3 mps 736 mmHg 77%
    05:00 +12°C° 0 mm 3 mps 736 mmHg 78%
    06:00 +14°C° 0 mm 4 mps 736 mmHg 73%
    07:00 +15°C° 0 mm 4 mps 735 mmHg 68%
    08:00 +18°C° 0 mm 4 mps 735 mmHg 63%
    09:00 +20°C° 0 mm 5 mps 735 mmHg 56%
    10:00 +22°C° 0 mm 5 mps 735 mmHg 49%
    11:00 +23°C° 0 mm 5 mps 735 mmHg 43%
    12:00 +25°C° 0 mm 5 mps 735 mmHg 41%
    13:00 +26°C° 0 mm 5 mps 734 mmHg 40%
    14:00 +26°C° 0 mm 5 mps 734 mmHg 39%
    15:00 +25°C° 0 mm 5 mps 734 mmHg 44%
    16:00 +23°C° 0 mm 4 mps 734 mmHg 49%
    17:00 +22°C° 0 mm 3 mps 734 mmHg 54%
    18:00 +21°C° 0 mm 3 mps 734 mmHg 58%
    19:00 +20°C° 0 mm 3 mps 734 mmHg 62%
    20:00 +18°C° 0 mm 3 mps 734 mmHg 66%
    21:00 +18°C° 0.1 mm 2 mps 734 mmHg 68%
    22:00 +17°C° 0.1 mm 2 mps 734 mmHg 70%
    23:00 +17°C° 0.1 mm 2 mps 733 mmHg 72%

    26 August, Sunday

    Time Temperature Precipitation Wind Pressure Humidity
    00:00 +16°C° 0.1 mm 2 mps 733 mmHg 73%
    01:00 +16°C° 0.1 mm 2 mps 733 mmHg 74%
    02:00 +16°C° 0.1 mm 2 mps 733 mmHg 75%
    03:00 +15°C° 0.3 mm 2 mps 733 mmHg 78%
    04:00 +15°C° 0.3 mm 2 mps 733 mmHg 81%
    05:00 +14°C° 0.3 mm 2 mps 733 mmHg 84%
    06:00 +14°C° 0.6 mm 1 mps 733 mmHg 85%
    07:00 +14°C° 0.6 mm 1 mps 733 mmHg 87%
    08:00 +15°C° 0.6 mm 1 mps 733 mmHg 88%
    09:00 +15°C° 0.4 mm 1 mps 733 mmHg 89%
    10:00 +16°C° 0.4 mm 1 mps 734 mmHg 89%
    11:00 +16°C° 0.4 mm 1 mps 734 mmHg 89%
    12:00 +16°C° 0.5 mm 1 mps 734 mmHg 90%
    13:00 +16°C° 0.5 mm 1 mps 734 mmHg 91%
    14:00 +15°C° 0.5 mm 0 mps 734 mmHg 91%
    15:00 +15°C° 0.9 mm 0 mps 733 mmHg 93%
    16:00 +15°C° 0.9 mm 0 mps 733 mmHg 95%
    17:00 +15°C° 0.9 mm 0 mps 733 mmHg 96%
    18:00 +15°C° 0.5 mm 0 mps 733 mmHg 97%
    19:00 +14°C° 0.5 mm 0 mps 733 mmHg 97%
    20:00 +14°C° 0.5 mm 0 mps 733 mmHg 98%
    21:00 +14°C° 0 mm 0 mps 733 mmHg 98%
    22:00 +14°C° 0 mm 1 mps 733 mmHg 98%
    23:00 +14°C° 0 mm 1 mps 733 mmHg 98%
    Show more